Regional Weather Roundup
Issued by NWS

Home | Current Version | Previous Version | Graphics & Text | Print | Product List | Glossary On
Versions: 1 2 3 4 5 6 7 8 9 10 11 12 13 14 15 16 17 18 19 20 21 22 23 24 25 26 27 28 29 30 31 32 33 34 35 36 37 38 39 40 41 42 43 44 45 46 47 48 49 50
000
ASUS43 KLMK 111610
RWRKY
KENTUCKY REGIONAL WEATHER ROUNDUP
NATIONAL WEATHER SERVICE LOUISVILLE KY
1200 PM EDT FRI JUL 11 2014

NOTE "FAIR" INDICATES FEW OR NO CLOUDS BELOW 12,000 FEET
WITH NO SIGNIFICANT WEATHER AND/OR OBSTRUCTIONS TO VISIBILITY.

KYZ001>023-026-027-061>063-070>075-111700-
WESTERN AND SOUTH CENTRAL KENTUCKY

CITY           SKY/WX    TMP DP  RH WIND       PRES   REMARKS
PADUCAH        SUNNY     85  68  56 VRB3      30.17S
HENDERSON      SUNNY     82  66  57 SE3       30.18S
OWENSBORO      SUNNY     81  62  52 CALM      30.19F
HOPKINSVILLE   SUNNY     86  63  45 W3        30.19S
BOWLING GREEN  MOSUNNY   84  63  49 CALM      30.20S
GLASGOW        MOSUNNY   85  59  41 E3        30.20S
$$

KYZ024-025-028>034-038-045-046-053-111700-
NORTH CENTRAL KENTUCKY

CITY           SKY/WX    TMP DP  RH WIND       PRES   REMARKS
LOUISVILLE/SDF MOSUNNY   85  60  42 VRB3      30.19F
LOUISVILLE/LOU SUNNY     83  59  44 CALM      30.20F
FORT KNOX      MOSUNNY   79  65  60 VRB2      30.19F
$$

KYZ035>037-039>044-047>052-055>060-089>105-111700-
NORTHEAST KENTUCKY

CITY           SKY/WX    TMP DP  RH WIND       PRES   REMARKS
LEXINGTON      SUNNY     84  60  44 SW8       30.22S
COVINGTON      PTSUNNY   79  56  45 CALM      30.22S
FRANKFORT      MOSUNNY   82  61  48 CALM      30.21S
$$

KYZ054-064>069-076>088-106>120-111700-
SOUTHEAST KENTUCKY

CITY           SKY/WX    TMP DP  RH WIND       PRES   REMARKS
JACKSON        MOSUNNY   79  59  50 CALM      30.24F
LONDON         SUNNY     85  56  37 VRB5      30.23F
SOMERSET       SUNNY     82  55  39 N3        30.23S
MIDDLESBORO    SUNNY     80  65  59 CALM      30.23F
MONTICELLO     SUNNY     87  62  42 E7        30.23S
$$




USA.gov is the U.S. government's official web portal to all federal, state and local government web resources and services.